Temp
17 16 16 16 16 15 15 15 16 15 15 16 16 16 16 16 15 15 15 15 15 15 15 15 16 15 15 16 16 15 15 15 15 15 15 15 15 15 15 16 16 16 16
18 16 15 16 15 15 15 15 15 15 15 16 16 16 16 15 15 15 15 15 15 15 15 15 15 15 15 15 16 16 16 15 15 15 15 15 15 15 15 15 16 16 16
17 16 15 16 16 15 15 15 15 15 15 15 15 15 15 15 15 14 14 15 15 14 14 14 15 16 15 15 15 15 16 15 15 15 15 15 15 15 15 16 16 15 15
17 16 15 15 16 15 15 15 15 15 15 15 15 15 15 15 14 14 14 14 13 14 14 14 14 14 15 14 15 15 15 15 15 16 16 15 15 15 16 16 16 16 15
16 15 15 15 15 15 15 15 15 15 15 15 15 15 14 14 14 14 15 14 14 14 13 14 14 14 15 14 14 14 14 15 15 15 15 16 16 16 16 16 16 16 15
14 15 15 15 16 16 15 15 15 14 14 14 14 14 14 14 14 14 14 14 13 13 13 14 14 14 14 14 14 14 14 14 15 15 15 15 15 15 15 15 16 16 15
14 14 14 15 14 15 15 14 14 14 14 13 13 14 13 13 13 14 13 15 14 14 13 14 14 14 14 14 14 14 14 14 15 15 15 15 14 14 14 14 15 15 15
13 14 14 15 14 14 14 14 14 14 13 13 13 13 13 13 13 13 14 14 14 14 14 14 14 14 13 13 13 13 13 13 14 14 14 15 14 14 14 14 14 14 15
13 13 14 14 14 14 14 14 14 13 13 12 12 12 12 12 12 13 13 14 14 14 14 14 14 13 13 13 13 13 13 14 14 14 14 13 14 14 14 14 14 14 14
13 13 13 13 13 13 13 13 13 13 12 14 12 11 11 13 13 14 14 14 14 14 13 13 13 14 13 13 12 13 13 13 13 14 14 13 13 13 14 14 13 14 13
12 13 13 13 13 13 13 12 12 12 12 13 13 11 11 11 12 13 13 14 13 13 13 13 13 13 13 13 13 13 13 13 13 14 14 14 13 13 13 13 14 13 14
12 12 13 13 12 13 12 12 12 12 12 12 12 11 11 11 11 12 13 13 14 14 14 14 13 13 11 12 13 12 12 12 13 13 13 13 13 13 13 13 13 14 13
11 12 12 12 12 13 12 12 12 11 11 11 11 11 10 10 11 11 12 12 12 12 12 12 12 12 12 11 11 12 12 12 12 13 12 12 12 13 13 13 13 13 13
10 11 11 11 12 12 12 11 11 11 11 11 11 10 10 10 10 10 11 11 12 12 12 13 12 12 12 11 11 11 11 11 11 11 11 12 12 12 12 13 13 13 13
10 10 10 10 11 11 11 11 11 10 10 10 10 10 10 9 9 10 10 11 11 12 12 12 12 12 11 11 10 10 10 10 10 11 11 11 11 12 11 11 12 12 12
10 10 10 10 10 11 11 10 10 10 10 9 9 9 10 9 9 9 9 10 10 11 11 11 12 11 11 11 10 9 9 9 9 10 10 10 11 11 11 12 12 12 12
9 9 9 9 10 10 10 10 10 10 9 9 9 9 9 8 8 8 8 9 9 10 10 10 11 11 10 10 9 9 8 9 8 9 9 9 10 11 11 11 12 12 11
9 9 9 9 10 10 10 10 9 9 9 8 8 8 8 8 7 7 8 8 8 9 9 9 10 9 9 9 9 8 8 8 8 7 8 8 9 10 10 11 11 11 11
9 8 8 8 9 9 9 9 9 8 8 8 7 7 7 7 7 7 7 7 7 8 8 8 8 8 8 8 8 8 7 7 6 6 6 6 6 8 8 9 9 10 10
7 7 7 8 8 8 8 8 8 7 7 7 6 6 7 7 6 6 6 6 6 6 6 7 7 7 7 7 7 7 7 7 7 6 6 5 5 5 6 7 8 9 8
7 7 6 7 7 7 7 7 7 6 6 6 6 6 6 6 5 5 5 5 5 5 6 6 6 6 6 6 6 5 6 6 6 6 6 6 6 6 6 6 6 7 8
6 6 6 6 7 7 6 6 6 6 4 5 5 5 5 5 5 5 5 5 5 4 5 5 5 5 5 5 5 5 4 4 4 4 4 5 5 5 5 6 6 6 6
5 5 5 6 6 6 6 5 4 4 4 4 4 4 4 4 4 4 4 4 4 4 4 4 4 4 4 4 4 4 4 4 3 3 3 3 3 4 4 4 4 5 5
4 4 4 5 5 5 5 5 4 5 5 4 3 3 3 3 3 3 3 3 3 3 3 3 3 3 3 3 3 3 3 3 3 3 2 2 2 2 2 2 3 3 3
3 3 3 4 4 4 4 3 3 2 2 2 2 2 1 2 2 2 2 2 2 2 2 2 2 2 2 2 2 2 2 2 2 2 2 1 1 0 1 1 1 2 2
2 3 3 3 3 3 3 2 1 1 1 1 1 1 1 1 1 1 1 1 1 1 1 1 1 1 1 1 1 1 1 1 1 1 1 0 -1 -1 -1 -1 -0 0 0
Height
1495 1500 1502 1505 1509 1513 1515 1517 1520 1522 1524 1526 1529 1531 1533 1534 1536 1537 1539 1541 1543 1544 1545 1546 1546 1548 1549 1550 1551 1551 1553 1554 1555 1556 1557 1558 1559 1559 1560 1561 1562 1563 1563
1495 1499 1503 1506 1510 1512 1515 1518 1520 1523 1525 1528 1530 1532 1534 1535 1537 1539 1541 1542 1544 1546 1546 1547 1548 1549 1551 1553 1553 1554 1555 1556 1558 1559 1560 1561 1561 1562 1564 1564 1565 1566 1567
1495 1499 1503 1507 1510 1513 1514 1517 1520 1523 1526 1529 1529 1532 1534 1536 1539 1540 1543 1545 1546 1547 1548 1549 1549 1551 1553 1554 1556 1557 1558 1559 1560 1561 1562 1563 1564 1566 1567 1567 1568 1569 1569
1496 1499 1502 1507 1510 1513 1515 1518 1520 1523 1526 1529 1530 1532 1535 1537 1540 1543 1544 1547 1548 1550 1551 1552 1552 1553 1555 1557 1558 1560 1561 1561 1563 1564 1564 1565 1566 1568 1569 1570 1570 1571 1572
1495 1500 1503 1507 1510 1513 1516 1518 1521 1524 1527 1529 1531 1533 1535 1537 1540 1543 1544 1545 1548 1550 1552 1555 1555 1555 1557 1560 1561 1562 1563 1564 1565 1566 1567 1567 1568 1569 1570 1571 1572 1573 1574
1496 1500 1504 1508 1511 1515 1517 1519 1522 1525 1527 1530 1532 1534 1536 1539 1541 1544 1546 1549 1549 1549 1552 1555 1556 1557 1558 1561 1562 1564 1565 1566 1567 1568 1569 1570 1570 1571 1572 1573 1574 1575 1576
1497 1501 1505 1509 1512 1514 1518 1520 1522 1525 1528 1531 1533 1536 1538 1540 1543 1544 1547 1548 1549 1551 1554 1556 1557 1558 1560 1563 1565 1566 1568 1569 1570 1571 1571 1573 1573 1574 1576 1577 1577 1577 1578
1499 1503 1506 1510 1513 1516 1518 1521 1524 1527 1528 1531 1534 1537 1540 1542 1544 1545 1548 1549 1550 1553 1555 1557 1559 1558 1561 1565 1566 1568 1570 1572 1573 1573 1574 1575 1575 1577 1578 1579 1581 1580 1581
1500 1504 1507 1510 1514 1516 1519 1521 1525 1527 1529 1531 1533 1536 1539 1542 1544 1546 1548 1550 1552 1554 1556 1558 1559 1560 1561 1566 1567 1570 1572 1574 1575 1575 1576 1577 1578 1579 1581 1581 1582 1583 1584
1500 1504 1507 1509 1513 1516 1519 1523 1524 1525 1525 1529 1534 1537 1540 1542 1543 1546 1548 1550 1553 1555 1557 1558 1560 1562 1564 1567 1569 1571 1573 1575 1577 1577 1578 1579 1580 1582 1583 1584 1585 1585 1586
1498 1502 1506 1509 1512 1514 1517 1518 1519 1522 1526 1532 1535 1538 1540 1542 1544 1546 1548 1551 1552 1554 1556 1557 1560 1563 1565 1567 1569 1571 1574 1575 1577 1578 1580 1581 1583 1583 1584 1584 1586 1587 1588
1495 1499 1503 1506 1509 1512 1514 1517 1519 1524 1528 1531 1534 1538 1541 1543 1544 1546 1548 1550 1551 1554 1556 1558 1561 1563 1566 1568 1569 1571 1573 1576 1578 1579 1580 1581 1584 1585 1586 1586 1587 1588 1589
1492 1497 1500 1503 1507 1511 1514 1518 1521 1525 1528 1531 1534 1538 1541 1543 1544 1546 1548 1550 1553 1555 1556 1558 1561 1563 1566 1568 1569 1572 1574 1576 1577 1578 1581 1583 1584 1585 1586 1588 1589 1589 1591
1491 1495 1498 1501 1505 1510 1514 1517 1521 1525 1528 1531 1534 1537 1540 1543 1544 1546 1548 1550 1553 1555 1557 1558 1561 1563 1565 1567 1570 1572 1574 1576 1577 1579 1583 1583 1583 1585 1587 1588 1589 1590 1590
1487 1491 1495 1499 1504 1508 1512 1515 1519 1523 1527 1530 1533 1537 1540 1542 1544 1546 1548 1550 1552 1554 1557 1559 1561 1563 1565 1567 1570 1572 1573 1575 1577 1579 1581 1585 1585 1584 1586 1586 1589 1590 1591
1483 1488 1493 1498 1501 1506 1510 1514 1517 1521 1525 1528 1532 1536 1539 1542 1543 1545 1548 1550 1552 1554 1556 1558 1560 1563 1565 1566 1568 1570 1572 1575 1577 1580 1582 1584 1586 1586 1589 1589 1589 1590 1592
1482 1487 1490 1495 1497 1502 1508 1511 1515 1519 1523 1527 1530 1534 1537 1540 1542 1544 1546 1549 1551 1553 1555 1557 1559 1561 1563 1566 1568 1569 1572 1574 1577 1578 1580 1583 1586 1586 1587 1591 1590 1592 1593
1478 1486 1491 1494 1495 1500 1503 1508 1512 1517 1521 1525 1528 1532 1536 1538 1541 1543 1545 1547 1550 1552 1554 1556 1558 1561 1562 1564 1566 1568 1570 1573 1575 1578 1579 1583 1583 1584 1587 1589 1591 1592 1593
1472 1480 1487 1492 1494 1500 1501 1507 1511 1515 1519 1522 1526 1530 1534 1537 1539 1541 1544 1546 1548 1551 1553 1555 1557 1560 1562 1564 1565 1567 1569 1571 1574 1576 1578 1579 1582 1584 1586 1588 1590 1592 1591
1469 1475 1482 1488 1494 1497 1500 1503 1507 1512 1517 1521 1525 1528 1532 1535 1537 1540 1542 1544 1547 1549 1551 1554 1556 1559 1561 1563 1565 1566 1568 1569 1571 1573 1574 1576 1579 1582 1583 1587 1590 1592 1591
1465 1472 1478 1484 1490 1494 1497 1502 1505 1509 1515 1520 1524 1527 1530 1533 1536 1538 1541 1543 1546 1548 1550 1553 1555 1558 1559 1561 1564 1565 1567 1568 1570 1571 1573 1575 1576 1577 1579 1582 1585 1588 1588
1461 1468 1475 1480 1487 1491 1495 1500 1505 1508 1513 1518 1522 1526 1528 1531 1535 1537 1540 1542 1544 1547 1549 1552 1554 1557 1559 1561 1563 1565 1567 1569 1569 1570 1572 1573 1575 1576 1577 1579 1580 1582 1584
1460 1465 1472 1478 1484 1489 1494 1497 1501 1506 1510 1515 1520 1523 1527 1530 1533 1536 1538 1541 1543 1546 1548 1551 1553 1556 1558 1560 1562 1565 1565 1566 1567 1569 1570 1571 1573 1574 1575 1576 1578 1580 1581
1459 1466 1472 1477 1482 1488 1491 1496 1500 1505 1509 1513 1517 1522 1525 1528 1531 1534 1537 1539 1542 1544 1547 1549 1552 1554 1556 1559 1561 1563 1564 1565 1566 1568 1569 1570 1571 1573 1574 1575 1577 1578 1578
1460 1465 1472 1477 1482 1486 1491 1495 1499 1504 1508 1512 1515 1519 1524 1527 1529 1532 1536 1538 1540 1543 1546 1548 1550 1552 1555 1557 1559 1561 1563 1564 1565 1567 1567 1568 1570 1571 1573 1574 1576 1577 1578
1461 1466 1471 1477 1482 1486 1491 1495 1499 1504 1507 1511 1515 1518 1521 1526 1529 1531 1534 1537 1539 1542 1544 1547 1549 1551 1553 1555 1557 1558 1560 1562 1563 1565 1566 1567 1569 1571 1572 1574 1576 1576 1577
Wind_Speed
24 24 22 21 20 19 18 19 19 19 18 16 15 14 13 13 14 16 17 17 16 17 17 17 16 17 18 17 18 19 19 20 21 21 21 21 20 20 20 20 20 21 20
26 26 23 20 21 19 19 18 18 18 16 15 15 15 15 16 17 18 19 22 20 18 18 16 16 16 18 17 18 17 18 19 19 18 18 20 19 19 19 19 18 19 20
27 26 22 19 19 19 19 19 18 17 16 15 15 16 17 17 17 18 19 17 18 19 17 17 17 15 17 17 16 16 16 16 16 15 15 16 16 15 14 13 15 17 17
29 27 24 22 21 20 20 18 17 17 17 16 17 18 18 18 18 18 18 18 17 14 14 16 16 16 14 14 14 14 14 14 13 13 13 12 12 11 10 10 12 15 15
30 27 24 22 21 21 20 19 20 19 18 17 17 18 19 19 19 18 17 17 5 11 8 13 15 15 13 12 11 12 11 10 11 12 14 13 13 10 8 8 11 14 15
29 27 24 23 20 19 20 22 22 21 20 19 19 19 18 18 19 18 18 10 13 13 13 12 11 12 12 10 10 11 12 11 9 11 13 14 14 12 12 12 11 13 15
29 27 26 23 23 23 20 22 22 22 23 23 22 21 20 20 18 16 16 14 15 14 15 12 11 11 11 8 9 10 10 11 11 11 11 13 15 11 12 13 12 12 13
28 29 26 23 25 23 22 22 20 23 23 23 20 18 17 18 20 17 16 13 14 14 12 12 9 10 9 9 9 7 7 8 9 12 13 13 13 12 10 12 13 12 14
28 27 25 25 23 23 22 20 21 20 18 18 19 19 19 20 18 17 15 13 13 12 10 10 10 8 12 7 8 7 7 5 5 8 12 12 12 11 10 11 11 12 13
31 28 26 24 25 24 21 20 22 19 22 22 17 17 18 18 17 16 15 14 13 11 11 11 12 12 13 12 11 9 6 4 5 11 13 14 11 10 9 9 9 10 11
31 30 26 24 24 23 25 26 27 25 22 19 17 16 16 15 15 16 15 13 13 13 14 14 13 14 16 15 14 12 10 8 6 10 12 12 12 12 10 8 7 8 9
35 35 31 29 26 27 28 27 25 21 19 17 17 15 7 7 10 12 14 16 16 15 14 12 9 9 13 14 12 11 11 10 10 7 8 8 5 6 6 6 6 7 8
36 34 33 31 30 29 29 26 23 22 20 16 15 12 11 7 9 11 12 13 12 11 11 11 10 11 12 12 13 12 10 9 7 8 7 8 3 5 5 4 6 6 6
34 34 33 32 32 30 29 26 23 22 19 15 14 11 9 7 9 10 12 12 13 13 12 12 12 12 12 12 13 11 10 8 7 7 8 8 9 9 4 4 5 5 5
37 35 34 33 31 31 28 26 25 23 19 16 12 10 11 10 10 11 11 11 12 12 12 12 12 12 12 13 13 12 10 8 7 6 5 6 7 9 13 10 9 6 8
39 37 35 32 37 30 29 27 25 24 21 17 13 11 12 11 11 11 11 11 11 11 11 11 11 11 12 14 14 13 12 11 10 9 8 8 11 9 6 14 18 14 11
36 37 34 36 34 33 26 28 26 23 19 15 13 11 9 10 11 12 11 11 11 11 10 10 10 11 11 13 14 15 15 14 14 12 12 11 12 10 11 12 9 7 6
36 34 33 37 35 30 39 30 27 23 20 16 13 11 10 9 11 12 12 11 10 11 11 10 11 11 12 13 14 15 16 16 16 15 12 12 12 12 11 11 10 13 13
37 37 35 33 31 32 32 27 27 22 20 17 15 13 10 10 10 11 11 11 10 10 9 9 10 10 11 12 13 13 14 14 15 15 13 12 13 16 14 11 13 12 12
37 37 36 35 35 32 37 33 29 25 21 18 15 12 10 10 10 12 12 11 11 10 8 9 9 10 10 10 11 12 11 11 11 11 12 14 16 17 16 16 17 14 9
37 37 36 34 33 34 28 29 26 23 22 18 15 13 11 10 11 11 11 11 11 9 9 10 10 11 12 12 10 9 9 9 10 10 10 11 11 12 14 20 22 22 20
37 35 35 34 32 33 31 24 29 26 21 17 15 14 12 11 11 10 10 10 10 10 11 11 11 11 11 12 10 8 5 6 8 8 8 8 9 10 11 12 14 16 20
34 34 34 32 30 29 28 28 25 24 19 19 17 15 13 11 11 12 12 12 11 11 11 11 11 11 11 11 9 6 4 4 6 8 8 8 8 8 9 9 10 12 13
31 30 28 28 28 28 26 24 24 23 21 19 17 16 14 13 13 13 12 12 12 12 12 12 11 12 11 11 11 10 7 3 3 3 8 9 8 8 8 8 8 9 10
27 26 25 23 23 22 23 22 20 18 15 15 16 15 14 13 13 13 12 12 12 12 12 12 12 12 12 12 12 11 11 9 8 6 4 8 9 8 8 8 8 9 9
23 21 20 19 18 18 17 16 13 12 12 14 15 15 15 14 14 13 13 12 12 12 11 11 11 11 11 11 11 11 10 8 8 8 6 8 8 8 7 6 7 8 9
Wind_Direction
171 170 155 148 159 164 170 166 166 167 167 161 155 151 149 147 140 137 134 127 126 122 119 116 112 112 109 106 112 111 105 99 101 105 110 112 112 107 101 96 94 93 96
171 167 151 157 165 165 166 167 169 169 168 164 161 156 152 147 143 138 131 130 124 120 116 116 117 118 112 107 107 111 111 105 102 103 105 107 108 109 105 99 93 93 93
171 161 154 162 162 162 164 171 170 170 171 169 162 154 149 149 149 145 136 132 130 121 120 123 122 117 114 113 111 109 109 107 104 108 111 111 110 109 108 104 98 97 98
168 158 156 160 166 166 164 164 164 165 162 161 156 154 151 151 150 150 136 119 108 109 123 122 120 116 112 111 109 106 103 103 104 105 112 123 117 113 111 108 106 108 103
166 159 158 162 166 163 163 160 157 153 153 154 151 149 149 152 151 151 154 148 49 77 138 119 120 118 115 110 108 104 98 95 101 105 106 109 112 108 111 117 116 120 120
162 157 161 163 161 166 165 155 154 152 149 145 144 144 148 147 144 150 155 177 130 139 147 146 137 129 117 106 101 100 95 89 108 112 110 108 97 93 100 101 114 125 133
161 161 165 168 169 167 171 162 158 151 147 137 136 134 136 138 140 142 142 143 141 142 154 147 129 131 132 111 112 110 97 90 100 108 109 111 106 95 98 96 98 117 133
165 168 171 175 176 174 175 166 163 158 152 148 148 147 148 150 150 148 149 148 151 153 158 145 148 136 157 139 122 106 107 97 99 107 107 109 110 115 105 114 113 107 123
176 173 178 175 178 186 182 176 176 169 170 171 165 170 168 165 169 168 172 172 170 173 168 168 165 148 170 158 143 139 122 106 112 116 115 103 105 112 114 111 118 115 119
179 180 183 181 180 180 191 202 196 194 197 206 189 182 184 185 184 181 182 180 180 179 185 189 182 171 169 175 170 157 145 130 141 127 114 99 108 112 106 118 123 124 128
180 189 192 192 189 189 189 189 195 204 215 208 224 189 188 182 183 188 190 194 198 198 193 202 198 195 184 185 180 172 172 182 196 145 121 116 105 109 112 109 136 142 141
186 190 194 199 193 198 192 196 202 208 200 194 201 226 190 205 199 198 202 201 202 201 207 213 198 185 183 188 189 186 180 185 189 185 167 141 136 116 108 113 125 137 149
190 194 197 203 205 206 202 204 205 204 194 196 195 213 245 250 214 195 198 200 199 197 193 194 197 187 192 197 197 202 204 204 198 192 190 148 158 152 159 141 118 128 142
190 196 201 207 209 205 205 204 208 209 209 206 208 216 255 276 224 201 194 192 191 189 189 188 187 191 192 194 189 191 200 214 223 216 175 177 158 119 150 181 153 142 143
191 196 202 201 211 206 213 208 209 212 208 207 212 230 250 277 232 211 201 197 196 195 192 192 190 191 194 197 189 190 192 199 190 206 225 213 195 163 153 132 120 147 140
198 197 203 209 205 205 217 211 212 208 202 210 224 239 248 259 234 212 205 201 202 203 204 203 201 199 199 200 205 193 184 191 194 183 192 204 190 198 172 137 129 127 118
204 202 200 203 202 198 214 209 208 207 209 209 217 225 238 243 231 217 210 203 201 202 205 209 211 210 207 202 200 200 193 190 195 192 193 194 205 210 208 221 225 193 159
207 202 207 202 197 219 198 201 200 205 207 211 214 217 229 243 230 216 212 208 202 199 201 205 210 209 205 203 204 202 200 195 194 197 198 203 196 195 199 207 234 201 168
205 199 203 207 201 202 189 210 206 201 204 207 211 210 213 236 233 219 213 211 210 206 202 202 209 208 210 206 205 205 205 209 214 215 208 211 216 221 227 229 216 232 241
207 199 204 206 208 210 201 195 191 194 197 200 206 205 207 229 231 220 218 212 214 208 205 209 208 210 208 207 205 206 211 216 219 221 223 227 225 221 218 223 227 225 216
204 201 203 206 207 205 201 195 193 193 191 192 202 205 205 218 227 221 212 208 211 202 204 210 212 206 204 202 202 202 205 212 217 222 224 226 231 235 236 236 233 231 232
202 199 201 203 207 207 201 223 202 200 185 197 201 203 202 210 221 219 215 208 210 208 208 210 213 213 208 207 209 208 207 220 227 224 226 228 227 228 231 234 237 237 238
197 195 198 201 204 207 208 202 192 194 189 194 199 200 200 203 213 216 215 212 209 211 212 211 211 211 218 216 218 210 206 214 213 231 233 236 235 235 235 234 233 236 240
190 190 193 199 204 204 202 206 204 203 203 200 202 201 201 205 209 214 211 209 207 209 212 213 215 216 216 219 224 229 237 246 211 211 230 234 239 239 239 240 240 240 241
184 184 188 194 198 200 203 203 201 200 199 198 195 199 202 206 206 210 210 208 206 207 209 211 215 220 224 228 232 236 240 245 244 243 241 229 233 236 236 236 239 242 246
178 176 179 184 191 194 198 195 194 195 200 202 202 203 204 203 205 202 203 202 200 202 205 209 214 219 224 228 230 234 236 237 238 234 235 217 213 217 224 228 230 235 239